MDCY

Samaná El Catey International Airport

Airport
ICAO code
MDCY
IATA Code
AZS
Summary
ICAO Region
CARSAM
ICAO Territory
Location

El Catey, Dominican Republic

Serving
Samaná
Elevation
12 ft
Coordinates
19° 16' 4" N , 69° 43' 50" W
KCC
Airport WX
Tropical Revolving Storm
Metar
MDCY 151900Z 00000KT 8000-RA FEW016CB BKN017 BKN070 25/24 Q1013 CB/NW/N

Samaná El Catey International Airport, also called Aeropuerto Internacional Presidente Juan Bosch (AISA), is an international airport that opened on 6 November 2006, serving the province of Samaná in the Dominican Republic.

Climatology

Tropical monsoon climate (Köppen climate classification Am)

Runways

Designator Length Width Surface Rops
7/25 3000 45 ASPHALT No/No

Airport map

Aerial View

SKYbrary Partners:

Safety knowledge contributed by: